owner,sensor,date,latitude,longitude,vertical_datum,mass_concentration_of_oxygen_in_sea_water,qcFlag 
DISL,ioos:station:DISL:KATA:1,2019-10-01T00:30:00Z,30.2583,-88.2131,4.351,4.63,11111222 
DISL,ioos:station:DISL:KATA:1,2019-10-01T01:30:00Z,30.2583,-88.2131,4.406,4.54,11111222 
DISL,ioos:station:DISL:KATA:1,2019-10-01T02:30:00Z,30.2583,-88.2131,4.455,4.68,11111222 
DISL,ioos:station:DISL:KATA:1,2019-10-01T03:30:00Z,30.2583,-88.2131,4.484,4.48,11111222 
DISL,ioos:station:DISL:KATA:1,2019-10-01T04:30:00Z,30.2583,-88.2131,4.483,4.24,11111222 
DISL,ioos:station:DISL:KATA:1,2019-10-01T05:30:00Z,30.2583,-88.2131,4.456,4.63,11111222 
DISL,ioos:station:DISL:KATA:1,2019-10-01T06:30:00Z,30.2583,-88.2131,4.41,4.33,11111222 
DISL,ioos:station:DISL:KATA:1,2019-10-01T07:30:00Z,30.2583,-88.2131,4.394,4.16,11111222 
DISL,ioos:station:DISL:KATA:1,2019-10-01T08:30:00Z,30.2583,-88.2131,4.37,4.37,11111222 
DISL,ioos:station:DISL:KATA:1,2019-10-01T09:30:00Z,30.2583,-88.2131,4.303,4.81,11111222 
DISL,ioos:station:DISL:KATA:1,2019-10-01T10:30:00Z,30.2583,-88.2131,4.213,4.47,11111222 
DISL,ioos:station:DISL:KATA:1,2019-10-01T11:30:00Z,30.2583,-88.2131,4.142,4.32,11111222 
DISL,ioos:station:DISL:KATA:1,2019-10-01T12:30:00Z,30.2583,-88.2131,4.094,4.31,11111222 
DISL,ioos:station:DISL:KATA:1,2019-10-01T13:30:00Z,30.2583,-88.2131,4.095,4.41,11111222 
DISL,ioos:station:DISL:KATA:1,2019-10-01T14:30:00Z,30.2583,-88.2131,4.11,4.54,11111222 
DISL,ioos:station:DISL:KATA:1,2019-10-01T15:30:00Z,30.2583,-88.2131,4.12,4.26,11111222 
DISL,ioos:station:DISL:KATA:1,2019-10-01T16:30:00Z,30.2583,-88.2131,4.137,4.14,11111222 
DISL,ioos:station:DISL:KATA:1,2019-10-01T17:30:00Z,30.2583,-88.2131,4.15,3.8,11111222 
DISL,ioos:station:DISL:KATA:1,2019-10-01T18:30:00Z,30.2583,-88.2131,4.187,3.68,11111222 
DISL,ioos:station:DISL:KATA:1,2019-10-01T19:30:00Z,30.2583,-88.2131,4.233,3.8,11111222 
DISL,ioos:station:DISL:KATA:1,2019-10-01T20:30:00Z,30.2583,-88.2131,4.271,3.71,11111222 
DISL,ioos:station:DISL:KATA:1,2019-10-01T21:30:00Z,30.2583,-88.2131,4.303,4.02,11111222 
DISL,ioos:station:DISL:KATA:1,2019-10-01T22:30:00Z,30.2583,-88.2131,4.345,4.12,11111222 
DISL,ioos:station:DISL:KATA:1,2019-10-01T23:30:00Z,30.2583,-88.2131,4.36,4.05,11111222 
DISL,ioos:station:DISL:KATA:1,2019-10-02T00:30:00Z,30.2583,-88.2131,4.392,4.31,11111222 
DISL,ioos:station:DISL:KATA:1,2019-10-02T01:30:00Z,30.2583,-88.2131,4.445,3.97,11111222 
DISL,ioos:station:DISL:KATA:1,2019-10-02T02:30:00Z,30.2583,-88.2131,4.502,4.27,11111222 
DISL,ioos:station:DISL:KATA:1,2019-10-02T03:30:00Z,30.2583,-88.2131,4.567,4.17,11111222 
DISL,ioos:station:DISL:KATA:1,2019-10-02T05:00:00Z,30.2583,-88.2131,4.592,4.4,11111222 
DISL,ioos:station:DISL:KATA:1,2019-10-02T05:30:00Z,30.2583,-88.2131,4.586,4.4,11111222 
DISL,ioos:station:DISL:KATA:1,2019-10-02T06:30:00Z,30.2583,-88.2131,4.527,4.29,11111222 
DISL,ioos:station:DISL:KATA:1,2019-10-02T07:30:00Z,30.2583,-88.2131,4.477,4.36,11111222 
DISL,ioos:station:DISL:KATA:1,2019-10-02T08:30:00Z,30.2583,-88.2131,4.431,4.9,11111222 
DISL,ioos:station:DISL:KATA:1,2019-10-02T09:30:00Z,30.2583,-88.2131,4.368,5.03,11111222 
DISL,ioos:station:DISL:KATA:1,2019-10-02T10:30:00Z,30.2583,-88.2131,4.301,5.12,11111222 
DISL,ioos:station:DISL:KATA:1,2019-10-02T11:30:00Z,30.2583,-88.2131,4.219,5.25,11111222 
DISL,ioos:station:DISL:KATA:1,2019-10-02T12:30:00Z,30.2583,-88.2131,4.15,4.96,11111222 
DISL,ioos:station:DISL:KATA:1,2019-10-02T13:30:00Z,30.2583,-88.2131,4.087,4.92,11111222 
DISL,ioos:station:DISL:KATA:1,2019-10-02T14:30:00Z,30.2583,-88.2131,4.054,4.7,11111222 
DISL,ioos:station:DISL:KATA:1,2019-10-02T15:30:00Z,30.2583,-88.2131,4.043,4.54,11111222 
DISL,ioos:station:DISL:KATA:1,2019-10-02T16:30:00Z,30.2583,-88.2131,4.058,4.68,11111222 
DISL,ioos:station:DISL:KATA:1,2019-10-02T17:30:00Z,30.2583,-88.2131,4.072,4.09,11111222 
DISL,ioos:station:DISL:KATA:1,2019-10-02T18:30:00Z,30.2583,-88.2131,4.083,4.49,11111222 
DISL,ioos:station:DISL:KATA:1,2019-10-02T19:30:00Z,30.2583,-88.2131,4.126,4.42,11111222 
DISL,ioos:station:DISL:KATA:1,2019-10-02T20:30:00Z,30.2583,-88.2131,4.168,4.52,11111222 
DISL,ioos:station:DISL:KATA:1,2019-10-02T21:30:00Z,30.2583,-88.2131,4.238,4.3,11111222 
DISL,ioos:station:DISL:KATA:1,2019-10-02T22:30:00Z,30.2583,-88.2131,4.29,4.4,11111222 
DISL,ioos:station:DISL:KATA:1,2019-10-02T23:30:00Z,30.2583,-88.2131,4.331,5.03,11111222 
DISL,ioos:station:DISL:KATA:1,2019-10-03T00:30:00Z,30.2583,-88.2131,4.399,4.33,11111222 
DISL,ioos:station:DISL:KATA:1,2019-10-03T01:30:00Z,30.2583,-88.2131,4.465,4.29,11111222 
DISL,ioos:station:DISL:KATA:1,2019-10-03T02:30:00Z,30.2583,-88.2131,4.528,4.71,11111222 
DISL,ioos:station:DISL:KATA:1,2019-10-03T03:30:00Z,30.2583,-88.2131,4.586,4.85,11111222 
DISL,ioos:station:DISL:KATA:1,2019-10-03T04:30:00Z,30.2583,-88.2131,4.629,4.84,11111222 
DISL,ioos:station:DISL:KATA:1,2019-10-03T05:30:00Z,30.2583,-88.2131,4.649,4.61,11111222 
DISL,ioos:station:DISL:KATA:1,2019-10-03T06:30:00Z,30.2583,-88.2131,4.627,4.7,11111222 
DISL,ioos:station:DISL:KATA:1,2019-10-03T07:30:00Z,30.2583,-88.2131,4.587,4.85,11111222 
DISL,ioos:station:DISL:KATA:1,2019-10-03T08:30:00Z,30.2583,-88.2131,4.549,4.41,11111222 
DISL,ioos:station:DISL:KATA:1,2019-10-03T09:30:00Z,30.2583,-88.2131,4.499,4.5,11111222 
DISL,ioos:station:DISL:KATA:1,2019-10-03T10:30:00Z,30.2583,-88.2131,4.441,4.49,11111222 
DISL,ioos:station:DISL:KATA:1,2019-10-03T11:30:00Z,30.2583,-88.2131,4.37,4.45,11111222 
DISL,ioos:station:DISL:KATA:1,2019-10-03T12:30:00Z,30.2583,-88.2131,4.289,4.59,11111222 
DISL,ioos:station:DISL:KATA:1,2019-10-03T13:30:00Z,30.2583,-88.2131,4.226,4.43,11111222 
DISL,ioos:station:DISL:KATA:1,2019-10-03T14:30:00Z,30.2583,-88.2131,4.172,4.47,11111222 
DISL,ioos:station:DISL:KATA:1,2019-10-03T15:30:00Z,30.2583,-88.2131,4.136,4.41,11111222 
DISL,ioos:station:DISL:KATA:1,2019-10-03T16:30:00Z,30.2583,-88.2131,4.116,4.25,11111222 
DISL,ioos:station:DISL:KATA:1,2019-10-03T17:30:00Z,30.2583,-88.2131,4.12,4.08,11111222 
DISL,ioos:station:DISL:KATA:1,2019-10-03T18:30:00Z,30.2583,-88.2131,4.134,3.63,11111222 
DISL,ioos:station:DISL:KATA:1,2019-10-03T19:30:00Z,30.2583,-88.2131,4.147,4.02,11111222 
DISL,ioos:station:DISL:KATA:1,2019-10-03T20:30:00Z,30.2583,-88.2131,4.167,3.89,11111222 
DISL,ioos:station:DISL:KATA:1,2019-10-03T21:30:00Z,30.2583,-88.2131,4.2,3.75,11111222 
DISL,ioos:station:DISL:KATA:1,2019-10-03T22:30:00Z,30.2583,-88.2131,4.262,3.9,11111222 
DISL,ioos:station:DISL:KATA:1,2019-10-03T23:30:00Z,30.2583,-88.2131,4.327,4.24,11111222 
DISL,ioos:station:DISL:KATA:1,2019-10-04T00:30:00Z,30.2583,-88.2131,4.393,4.21,11111222 
DISL,ioos:station:DISL:KATA:1,2019-10-04T01:30:00Z,30.2583,-88.2131,4.436,5.35,11111222 
DISL,ioos:station:DISL:KATA:1,2019-10-04T02:30:00Z,30.2583,-88.2131,4.489,5.64,11111222 
DISL,ioos:station:DISL:KATA:1,2019-10-04T03:30:00Z,30.2583,-88.2131,4.55,5.34,11111222 
DISL,ioos:station:DISL:KATA:1,2019-10-04T04:30:00Z,30.2583,-88.2131,4.602,5.49,11111222 
DISL,ioos:station:DISL:KATA:1,2019-10-04T05:30:00Z,30.2583,-88.2131,4.644,5.79,11111222 
DISL,ioos:station:DISL:KATA:1,2019-10-04T06:30:00Z,30.2583,-88.2131,4.658,5.42,11111222 
DISL,ioos:station:DISL:KATA:1,2019-10-04T07:30:00Z,30.2583,-88.2131,4.635,4.77,11111222 
DISL,ioos:station:DISL:KATA:1,2019-10-04T08:30:00Z,30.2583,-88.2131,4.585,4.94,11111222 
DISL,ioos:station:DISL:KATA:1,2019-10-04T09:30:00Z,30.2583,-88.2131,4.538,4.95,11111222 
DISL,ioos:station:DISL:KATA:1,2019-10-04T10:30:00Z,30.2583,-88.2131,4.49,5.05,11111222 
DISL,ioos:station:DISL:KATA:1,2019-10-04T11:30:00Z,30.2583,-88.2131,4.432,4.87,11111222 
DISL,ioos:station:DISL:KATA:1,2019-10-04T12:30:00Z,30.2583,-88.2131,4.358,5.0,11111222 
DISL,ioos:station:DISL:KATA:1,2019-10-04T13:30:00Z,30.2583,-88.2131,4.298,4.91,11111222 
DISL,ioos:station:DISL:KATA:1,2019-10-04T14:30:00Z,30.2583,-88.2131,4.237,4.96,11111222 
DISL,ioos:station:DISL:KATA:1,2019-10-04T15:30:00Z,30.2583,-88.2131,4.172,4.82,11111222 
DISL,ioos:station:DISL:KATA:1,2019-10-04T16:30:00Z,30.2583,-88.2131,4.126,4.57,11111222 
DISL,ioos:station:DISL:KATA:1,2019-10-04T17:30:00Z,30.2583,-88.2131,4.089,4.25,11111222 
DISL,ioos:station:DISL:KATA:1,2019-10-04T18:30:00Z,30.2583,-88.2131,4.084,4.18,11111222 
DISL,ioos:station:DISL:KATA:1,2019-10-04T19:30:00Z,30.2583,-88.2131,4.09,4.26,11111222 
DISL,ioos:station:DISL:KATA:1,2019-10-04T20:30:00Z,30.2583,-88.2131,4.153,4.54,11111222 
DISL,ioos:station:DISL:KATA:1,2019-10-04T21:30:00Z,30.2583,-88.2131,4.166,4.22,11111222 
DISL,ioos:station:DISL:KATA:1,2019-10-04T22:30:00Z,30.2583,-88.2131,4.202,4.31,11111222 
DISL,ioos:station:DISL:KATA:1,2019-10-04T23:30:00Z,30.2583,-88.2131,4.262,4.68,11111222 
DISL,ioos:station:DISL:KATA:1,2019-10-05T00:30:00Z,30.2583,-88.2131,4.345,4.91,11111222 
DISL,ioos:station:DISL:KATA:1,2019-10-05T01:30:00Z,30.2583,-88.2131,4.426,4.14,11111222 
DISL,ioos:station:DISL:KATA:1,2019-10-05T02:30:00Z,30.2583,-88.2131,4.511,4.26,11111222 
DISL,ioos:station:DISL:KATA:1,2019-10-05T03:30:00Z,30.2583,-88.2131,4.511,4.72,11111222 
DISL,ioos:station:DISL:KATA:1,2019-10-05T04:30:00Z,30.2583,-88.2131,4.541,4.87,11111222 
DISL,ioos:station:DISL:KATA:1,2019-10-05T05:30:00Z,30.2583,-88.2131,4.535,4.62,11111222 
DISL,ioos:station:DISL:KATA:1,2019-10-05T06:30:00Z,30.2583,-88.2131,4.564,4.43,11111222 
DISL,ioos:station:DISL:KATA:1,2019-10-05T07:30:00Z,30.2583,-88.2131,4.593,4.21,11111222 
DISL,ioos:station:DISL:KATA:1,2019-10-05T08:30:00Z,30.2583,-88.2131,4.59,4.19,11111222 
DISL,ioos:station:DISL:KATA:1,2019-10-05T09:30:00Z,30.2583,-88.2131,4.573,3.81,11111222 
DISL,ioos:station:DISL:KATA:1,2019-10-05T10:30:00Z,30.2583,-88.2131,4.535,3.72,11111222 
DISL,ioos:station:DISL:KATA:1,2019-10-05T11:30:00Z,30.2583,-88.2131,4.491,3.13,11111222 
DISL,ioos:station:DISL:KATA:1,2019-10-05T12:30:00Z,30.2583,-88.2131,4.438,3.77,11111222 
DISL,ioos:station:DISL:KATA:1,2019-10-05T13:30:00Z,30.2583,-88.2131,4.396,3.91,11111222 
DISL,ioos:station:DISL:KATA:1,2019-10-05T14:30:00Z,30.2583,-88.2131,4.33,4.14,11111222 
DISL,ioos:station:DISL:KATA:1,2019-10-05T15:30:00Z,30.2583,-88.2131,4.254,4.14,11111222 
DISL,ioos:station:DISL:KATA:1,2019-10-05T16:30:00Z,30.2583,-88.2131,4.187,4.08,11111222 
DISL,ioos:station:DISL:KATA:1,2019-10-05T17:30:00Z,30.2583,-88.2131,4.135,4.6,11111222 
DISL,ioos:station:DISL:KATA:1,2019-10-05T18:30:00Z,30.2583,-88.2131,4.109,4.46,11111222 
DISL,ioos:station:DISL:KATA:1,2019-10-05T19:30:00Z,30.2583,-88.2131,4.118,4.38,11111222 
DISL,ioos:station:DISL:KATA:1,2019-10-05T20:30:00Z,30.2583,-88.2131,4.144,4.29,11111222 
DISL,ioos:station:DISL:KATA:1,2019-10-05T21:30:00Z,30.2583,-88.2131,4.144,4.25,11111222 
DISL,ioos:station:DISL:KATA:1,2019-10-05T22:30:00Z,30.2583,-88.2131,4.157,2.93,11111222 
DISL,ioos:station:DISL:KATA:1,2019-10-05T23:30:00Z,30.2583,-88.2131,4.209,3.04,11111222 
DISL,ioos:station:DISL:KATA:1,2019-10-06T00:30:00Z,30.2583,-88.2131,4.283,3.18,11111222 
DISL,ioos:station:DISL:KATA:1,2019-10-06T01:30:00Z,30.2583,-88.2131,4.353,4.14,11111222 
DISL,ioos:station:DISL:KATA:1,2019-10-06T02:30:00Z,30.2583,-88.2131,4.412,4.29,11111222 
DISL,ioos:station:DISL:KATA:1,2019-10-06T03:30:00Z,30.2583,-88.2131,4.466,4.34,11111222 
DISL,ioos:station:DISL:KATA:1,2019-10-06T04:30:00Z,30.2583,-88.2131,4.509,4.54,11111222 
DISL,ioos:station:DISL:KATA:1,2019-10-06T05:30:00Z,30.2583,-88.2131,4.557,4.64,11111222 
DISL,ioos:station:DISL:KATA:1,2019-10-06T06:30:00Z,30.2583,-88.2131,4.579,4.55,11111222 
DISL,ioos:station:DISL:KATA:1,2019-10-06T07:30:00Z,30.2583,-88.2131,4.608,4.45,11111222 
DISL,ioos:station:DISL:KATA:1,2019-10-06T08:30:00Z,30.2583,-88.2131,4.629,4.2,11111222 
DISL,ioos:station:DISL:KATA:1,2019-10-06T09:30:00Z,30.2583,-88.2131,4.643,3.88,11111222 
DISL,ioos:station:DISL:KATA:1,2019-10-06T10:30:00Z,30.2583,-88.2131,4.603,3.64,11111222 
DISL,ioos:station:DISL:KATA:1,2019-10-06T11:30:00Z,30.2583,-88.2131,4.567,4.11,11111222 
DISL,ioos:station:DISL:KATA:1,2019-10-06T12:30:00Z,30.2583,-88.2131,4.533,4.38,11111222 
DISL,ioos:station:DISL:KATA:1,2019-10-06T13:30:00Z,30.2583,-88.2131,4.503,4.39,11111222 
DISL,ioos:station:DISL:KATA:1,2019-10-06T14:30:00Z,30.2583,-88.2131,4.482,4.34,11111222 
DISL,ioos:station:DISL:KATA:1,2019-10-06T15:30:00Z,30.2583,-88.2131,4.42,4.45,11111222 
DISL,ioos:station:DISL:KATA:1,2019-10-06T16:30:00Z,30.2583,-88.2131,4.379,4.42,11111222 
DISL,ioos:station:DISL:KATA:1,2019-10-06T17:30:00Z,30.2583,-88.2131,4.356,4.44,11111222 
DISL,ioos:station:DISL:KATA:1,2019-10-06T18:30:00Z,30.2583,-88.2131,4.29,4.35,11111222 
DISL,ioos:station:DISL:KATA:1,2019-10-06T19:30:00Z,30.2583,-88.2131,4.261,4.35,11111222 
DISL,ioos:station:DISL:KATA:1,2019-10-06T20:30:00Z,30.2583,-88.2131,4.254,3.72,11111222 
DISL,ioos:station:DISL:KATA:1,2019-10-06T21:30:00Z,30.2583,-88.2131,4.297,3.79,11111222 
DISL,ioos:station:DISL:KATA:1,2019-10-06T22:30:00Z,30.2583,-88.2131,4.306,3.92,11111222 
DISL,ioos:station:DISL:KATA:1,2019-10-06T23:30:00Z,30.2583,-88.2131,4.297,3.92,11111222 
DISL,ioos:station:DISL:KATA:1,2019-10-07T00:30:00Z,30.2583,-88.2131,4.358,3.97,11111222 
DISL,ioos:station:DISL:KATA:1,2019-10-07T01:30:00Z,30.2583,-88.2131,4.427,3.97,11111222 
DISL,ioos:station:DISL:KATA:1,2019-10-07T02:30:00Z,30.2583,-88.2131,4.488,3.95,11111222 
DISL,ioos:station:DISL:KATA:1,2019-10-07T03:30:00Z,30.2583,-88.2131,4.528,4.16,11111222 
DISL,ioos:station:DISL:KATA:1,2019-10-07T04:30:00Z,30.2583,-88.2131,4.572,4.14,11111222 
DISL,ioos:station:DISL:KATA:1,2019-10-07T05:30:00Z,30.2583,-88.2131,4.599,4.09,11111222 
DISL,ioos:station:DISL:KATA:1,2019-10-07T06:30:00Z,30.2583,-88.2131,4.63,3.95,11111222 
DISL,ioos:station:DISL:KATA:1,2019-10-07T07:30:00Z,30.2583,-88.2131,4.668,4.04,11111222 
DISL,ioos:station:DISL:KATA:1,2019-10-07T08:30:00Z,30.2583,-88.2131,4.675,4.18,11111222 
DISL,ioos:station:DISL:KATA:1,2019-10-07T09:30:00Z,30.2583,-88.2131,4.657,4.03,11111222 
DISL,ioos:station:DISL:KATA:1,2019-10-07T10:30:00Z,30.2583,-88.2131,4.644,4.01,11111222 
DISL,ioos:station:DISL:KATA:1,2019-10-07T11:30:00Z,30.2583,-88.2131,4.605,3.99,11111222 
DISL,ioos:station:DISL:KATA:1,2019-10-07T12:30:00Z,30.2583,-88.2131,4.615,3.79,11111222 
DISL,ioos:station:DISL:KATA:1,2019-10-07T18:30:00Z,30.2583,-88.2131,4.308,3.18,11111222 
DISL,ioos:station:DISL:KATA:1,2019-10-07T19:30:00Z,30.2583,-88.2131,4.271,3.52,11111222 
DISL,ioos:station:DISL:KATA:1,2019-10-07T20:30:00Z,30.2583,-88.2131,4.246,3.1,11111222 
DISL,ioos:station:DISL:KATA:1,2019-10-07T21:30:00Z,30.2583,-88.2131,4.268,3.3,11111222 
DISL,ioos:station:DISL:KATA:1,2019-10-07T22:30:00Z,30.2583,-88.2131,4.226,3.22,11111222 
DISL,ioos:station:DISL:KATA:1,2019-10-07T23:30:00Z,30.2583,-88.2131,4.25,3.41,11111222 
DISL,ioos:station:DISL:KATA:1,2019-10-08T00:30:00Z,30.2583,-88.2131,4.28,3.29,11111222 
DISL,ioos:station:DISL:KATA:1,2019-10-08T01:30:00Z,30.2583,-88.2131,4.31,3.11,11111222 
DISL,ioos:station:DISL:KATA:1,2019-10-08T02:30:00Z,30.2583,-88.2131,4.35,3.11,11111222 
DISL,ioos:station:DISL:KATA:1,2019-10-08T03:30:00Z,30.2583,-88.2131,4.417,3.36,11111222 
DISL,ioos:station:DISL:KATA:1,2019-10-08T04:30:00Z,30.2583,-88.2131,4.432,3.23,11111222 
DISL,ioos:station:DISL:KATA:1,2019-10-08T05:30:00Z,30.2583,-88.2131,4.441,3.24,11111222 
DISL,ioos:station:DISL:KATA:1,2019-10-08T06:30:00Z,30.2583,-88.2131,4.455,3.7,11111222 
DISL,ioos:station:DISL:KATA:1,2019-10-08T07:30:00Z,30.2583,-88.2131,4.469,4.23,11111222 
DISL,ioos:station:DISL:KATA:1,2019-10-08T08:30:00Z,30.2583,-88.2131,4.513,4.27,11111222 
DISL,ioos:station:DISL:KATA:1,2019-10-08T09:30:00Z,30.2583,-88.2131,4.576,4.25,11111222 
DISL,ioos:station:DISL:KATA:1,2019-10-08T10:30:00Z,30.2583,-88.2131,4.601,4.25,11111222 
DISL,ioos:station:DISL:KATA:1,2019-10-08T11:30:00Z,30.2583,-88.2131,4.619,4.22,11111222 
DISL,ioos:station:DISL:KATA:1,2019-10-08T12:30:00Z,30.2583,-88.2131,4.608,4.22,11111222 
DISL,ioos:station:DISL:KATA:1,2019-10-08T13:30:00Z,30.2583,-88.2131,4.582,4.02,11111222 
DISL,ioos:station:DISL:KATA:1,2019-10-08T14:30:00Z,30.2583,-88.2131,4.573,4.02,11111222 
DISL,ioos:station:DISL:KATA:1,2019-10-08T15:30:00Z,30.2583,-88.2131,4.518,4.1,11111222 
DISL,ioos:station:DISL:KATA:1,2019-10-08T16:30:00Z,30.2583,-88.2131,4.487,4.35,11111222 
DISL,ioos:station:DISL:KATA:1,2019-10-08T17:30:00Z,30.2583,-88.2131,4.442,4.66,11111222 
DISL,ioos:station:DISL:KATA:1,2019-10-08T19:00:00Z,30.2583,-88.2131,4.359,4.26,11111222 
DISL,ioos:station:DISL:KATA:1,2019-10-08T19:30:00Z,30.2583,-88.2131,4.336,4.56,11111222 
DISL,ioos:station:DISL:KATA:1,2019-10-08T20:30:00Z,30.2583,-88.2131,4.293,4.4,11111222 
DISL,ioos:station:DISL:KATA:1,2019-10-08T21:30:00Z,30.2583,-88.2131,4.265,4.35,11111222 
DISL,ioos:station:DISL:KATA:1,2019-10-08T22:30:00Z,30.2583,-88.2131,4.283,4.07,11111222 
DISL,ioos:station:DISL:KATA:1,2019-10-08T23:30:00Z,30.2583,-88.2131,4.31,4.13,11111222 
DISL,ioos:station:DISL:KATA:1,2019-10-09T00:30:00Z,30.2583,-88.2131,4.325,3.94,11111222 
DISL,ioos:station:DISL:KATA:1,2019-10-09T01:30:00Z,30.2583,-88.2131,4.341,3.74,11111222 
DISL,ioos:station:DISL:KATA:1,2019-10-09T02:30:00Z,30.2583,-88.2131,4.368,3.99,11111222 
DISL,ioos:station:DISL:KATA:1,2019-10-09T03:30:00Z,30.2583,-88.2131,4.421,4.05,11111222 
DISL,ioos:station:DISL:KATA:1,2019-10-09T04:30:00Z,30.2583,-88.2131,4.457,4.26,11111222 
DISL,ioos:station:DISL:KATA:1,2019-10-09T05:30:00Z,30.2583,-88.2131,4.453,4.11,11111222 
DISL,ioos:station:DISL:KATA:1,2019-10-09T06:30:00Z,30.2583,-88.2131,4.44,4.3,11111222 
DISL,ioos:station:DISL:KATA:1,2019-10-09T07:30:00Z,30.2583,-88.2131,4.434,3.8,11111222 
DISL,ioos:station:DISL:KATA:1,2019-10-09T08:30:00Z,30.2583,-88.2131,4.453,3.68,11111222 
DISL,ioos:station:DISL:KATA:1,2019-10-09T09:30:00Z,30.2583,-88.2131,4.488,3.81,11111222 
DISL,ioos:station:DISL:KATA:1,2019-10-09T10:30:00Z,30.2583,-88.2131,4.532,3.91,11111222 
DISL,ioos:station:DISL:KATA:1,2019-10-09T11:30:00Z,30.2583,-88.2131,4.559,4.06,11111222 
DISL,ioos:station:DISL:KATA:1,2019-10-09T12:30:00Z,30.2583,-88.2131,4.553,4.14,11111222 
DISL,ioos:station:DISL:KATA:1,2019-10-09T13:30:00Z,30.2583,-88.2131,4.556,4.35,11111222 
DISL,ioos:station:DISL:KATA:1,2019-10-09T14:30:00Z,30.2583,-88.2131,4.543,4.23,11111222 
DISL,ioos:station:DISL:KATA:1,2019-10-09T15:30:00Z,30.2583,-88.2131,4.516,4.42,11111222 
DISL,ioos:station:DISL:KATA:1,2019-10-09T16:30:00Z,30.2583,-88.2131,4.49,4.45,11111222 
DISL,ioos:station:DISL:KATA:1,2019-10-09T17:30:00Z,30.2583,-88.2131,4.418,4.27,11111222 
DISL,ioos:station:DISL:KATA:1,2019-10-09T18:30:00Z,30.2583,-88.2131,4.358,4.5,11111222 
DISL,ioos:station:DISL:KATA:1,2019-10-09T19:30:00Z,30.2583,-88.2131,4.298,4.21,11111222 
DISL,ioos:station:DISL:KATA:1,2019-10-09T20:30:00Z,30.2583,-88.2131,4.247,4.4,11111222 
DISL,ioos:station:DISL:KATA:1,2019-10-09T21:30:00Z,30.2583,-88.2131,4.226,4.62,11111222 
DISL,ioos:station:DISL:KATA:1,2019-10-09T22:30:00Z,30.2583,-88.2131,4.236,3.59,11111222 
DISL,ioos:station:DISL:KATA:1,2019-10-09T23:30:00Z,30.2583,-88.2131,4.252,3.55,11111222 
DISL,ioos:station:DISL:KATA:1,2019-10-10T02:30:00Z,30.2583,-88.2131,4.371,3.59,11111222 
DISL,ioos:station:DISL:KATA:1,2019-10-10T03:30:00Z,30.2583,-88.2131,4.4,3.73,11111222 
DISL,ioos:station:DISL:KATA:1,2019-10-10T04:30:00Z,30.2583,-88.2131,4.438,4.14,11111222 
DISL,ioos:station:DISL:KATA:1,2019-10-10T05:30:00Z,30.2583,-88.2131,4.462,4.01,11111222 
DISL,ioos:station:DISL:KATA:1,2019-10-10T06:30:00Z,30.2583,-88.2131,4.475,3.64,11111222 
DISL,ioos:station:DISL:KATA:1,2019-10-10T07:30:00Z,30.2583,-88.2131,4.467,3.85,11111222 
DISL,ioos:station:DISL:KATA:1,2019-10-10T08:30:00Z,30.2583,-88.2131,4.472,3.25,11111222 
DISL,ioos:station:DISL:KATA:1,2019-10-10T09:30:00Z,30.2583,-88.2131,4.486,3.49,11111222 
DISL,ioos:station:DISL:KATA:1,2019-10-10T10:30:00Z,30.2583,-88.2131,4.513,3.41,11111222 
DISL,ioos:station:DISL:KATA:1,2019-10-10T11:30:00Z,30.2583,-88.2131,4.559,3.79,11111222 
DISL,ioos:station:DISL:KATA:1,2019-10-10T12:30:00Z,30.2583,-88.2131,4.573,3.74,11111222 
DISL,ioos:station:DISL:KATA:1,2019-10-10T13:30:00Z,30.2583,-88.2131,4.58,3.88,11111222 
DISL,ioos:station:DISL:KATA:1,2019-10-10T14:30:00Z,30.2583,-88.2131,4.547,4.21,11111222 
DISL,ioos:station:DISL:KATA:1,2019-10-10T15:30:00Z,30.2583,-88.2131,4.513,3.81,11111222 
DISL,ioos:station:DISL:KATA:1,2019-10-10T16:30:00Z,30.2583,-88.2131,4.486,4.34,11111222 
DISL,ioos:station:DISL:KATA:1,2019-10-10T17:30:00Z,30.2583,-88.2131,4.463,4.45,11111222 
DISL,ioos:station:DISL:KATA:1,2019-10-10T18:30:00Z,30.2583,-88.2131,4.454,4.65,11111222 
DISL,ioos:station:DISL:KATA:1,2019-10-10T19:30:00Z,30.2583,-88.2131,4.399,4.82,11111222 
DISL,ioos:station:DISL:KATA:1,2019-10-10T20:30:00Z,30.2583,-88.2131,4.37,4.45,11111222 
DISL,ioos:station:DISL:KATA:1,2019-10-10T21:30:00Z,30.2583,-88.2131,4.339,4.2,11111222 
DISL,ioos:station:DISL:KATA:1,2019-10-10T22:30:00Z,30.2583,-88.2131,4.346,4.4,11111222 
DISL,ioos:station:DISL:KATA:1,2019-10-10T23:30:00Z,30.2583,-88.2131,4.367,4.63,11111222 
DISL,ioos:station:DISL:KATA:1,2019-10-11T00:30:00Z,30.2583,-88.2131,4.399,4.11,11111222 
DISL,ioos:station:DISL:KATA:1,2019-10-11T01:30:00Z,30.2583,-88.2131,4.443,4.51,11111222 
DISL,ioos:station:DISL:KATA:1,2019-10-11T02:30:00Z,30.2583,-88.2131,4.47,4.43,11111222 
DISL,ioos:station:DISL:KATA:1,2019-10-11T03:30:00Z,30.2583,-88.2131,4.495,4.28,11111222 
DISL,ioos:station:DISL:KATA:1,2019-10-11T04:30:00Z,30.2583,-88.2131,4.52,4.27,11111222 
DISL,ioos:station:DISL:KATA:1,2019-10-11T05:30:00Z,30.2583,-88.2131,4.509,4.06,11111222 
DISL,ioos:station:DISL:KATA:1,2019-10-11T06:30:00Z,30.2583,-88.2131,4.484,3.89,11111222 
DISL,ioos:station:DISL:KATA:1,2019-10-11T07:30:00Z,30.2583,-88.2131,4.476,3.78,11111222 
DISL,ioos:station:DISL:KATA:1,2019-10-11T08:30:00Z,30.2583,-88.2131,4.467,4.17,11111222 
DISL,ioos:station:DISL:KATA:1,2019-10-11T09:30:00Z,30.2583,-88.2131,4.478,3.66,11111222 
DISL,ioos:station:DISL:KATA:1,2019-10-11T10:30:00Z,30.2583,-88.2131,4.487,3.97,11111222 
DISL,ioos:station:DISL:KATA:1,2019-10-11T11:30:00Z,30.2583,-88.2131,4.536,3.37,11111222 
DISL,ioos:station:DISL:KATA:1,2019-10-11T12:30:00Z,30.2583,-88.2131,4.564,3.93,11111222 
DISL,ioos:station:DISL:KATA:1,2019-10-11T13:30:00Z,30.2583,-88.2131,4.557,3.99,11111222 
DISL,ioos:station:DISL:KATA:1,2019-10-11T14:30:00Z,30.2583,-88.2131,4.533,3.88,11111222 
DISL,ioos:station:DISL:KATA:1,2019-10-11T15:30:00Z,30.2583,-88.2131,4.523,3.97,11111222 
DISL,ioos:station:DISL:KATA:1,2019-10-11T16:30:00Z,30.2583,-88.2131,4.499,4.08,11111222 
DISL,ioos:station:DISL:KATA:1,2019-10-11T17:30:00Z,30.2583,-88.2131,4.497,4.03,11111222 
DISL,ioos:station:DISL:KATA:1,2019-10-11T18:30:00Z,30.2583,-88.2131,4.454,4.16,11111222 
DISL,ioos:station:DISL:KATA:1,2019-10-11T19:30:00Z,30.2583,-88.2131,4.403,4.64,11111222 
DISL,ioos:station:DISL:KATA:1,2019-10-11T20:30:00Z,30.2583,-88.2131,4.362,4.81,11111222 
DISL,ioos:station:DISL:KATA:1,2019-10-11T21:30:00Z,30.2583,-88.2131,4.339,4.81,11111222 
DISL,ioos:station:DISL:KATA:1,2019-10-11T22:30:00Z,30.2583,-88.2131,4.398,4.5,11111222 
DISL,ioos:station:DISL:KATA:1,2019-10-11T23:30:00Z,30.2583,-88.2131,4.421,4.5,11111222 
DISL,ioos:station:DISL:KATA:1,2019-10-12T00:30:00Z,30.2583,-88.2131,4.394,4.3,11111222 
DISL,ioos:station:DISL:KATA:1,2019-10-12T01:30:00Z,30.2583,-88.2131,4.485,4.24,11111222 
DISL,ioos:station:DISL:KATA:1,2019-10-12T02:30:00Z,30.2583,-88.2131,4.461,4.16,11111222 
DISL,ioos:station:DISL:KATA:1,2019-10-12T15:30:00Z,30.2583,-88.2131,4.301,3.84,11111222 
DISL,ioos:station:DISL:KATA:1,2019-10-12T16:30:00Z,30.2583,-88.2131,4.295,4.02,11111222 
DISL,ioos:station:DISL:KATA:1,2019-10-12T17:30:00Z,30.2583,-88.2131,4.373,4.0,11111222 
DISL,ioos:station:DISL:KATA:1,2019-10-12T18:30:00Z,30.2583,-88.2131,4.416,3.96,11111222 
DISL,ioos:station:DISL:KATA:1,2019-10-12T19:30:00Z,30.2583,-88.2131,4.417,3.76,11111222 
DISL,ioos:station:DISL:KATA:1,2019-10-12T20:30:00Z,30.2583,-88.2131,4.369,3.83,11111222 
DISL,ioos:station:DISL:KATA:1,2019-10-12T21:30:00Z,30.2583,-88.2131,4.343,3.92,11111222 
DISL,ioos:station:DISL:KATA:1,2019-10-12T22:30:00Z,30.2583,-88.2131,4.318,4.03,11111222 
DISL,ioos:station:DISL:KATA:1,2019-10-12T23:30:00Z,30.2583,-88.2131,4.33,4.13,11111222 